Regional Weather Roundup
Issued by NWS Charleston, SC

Current Version | Previous Version | Graphics & Text | Print | Product List | Glossary On
Versions: 1 2 3 4 5 6 7 8 9 10 11 12 13 14 15 16 17 18 19 20 21 22 23 24 25 26 27 28 29 30 31 32 33 34 35 36 37 38 39 40 41 42 43 44 45 46 47 48 49 50
000
ASUS42 KCHS 251913
RWRCHS

REGIONAL WEATHER ROUNDUP
NATIONAL WEATHER SERVICE CHARLESTON SC
300 PM EDT THU AUG 25 2016

NOTE: "FAIR" INDICATES FEW OR NO CLOUDS BELOW 12,000 FEET WITH NO
SIGNIFICANT WEATHER AND/OR OBSTRUCTIONS TO VISIBILITY.

NOT ALL STATIONS ARE QUALITY CONTROLLED. USE DATA WITH CAUTION...
ESPECIALLY DEWPOINT OBSERVATIONS.

SCZ027-030-031-034>040-042>050-252000-
...SOUTHEAST SOUTH CAROLINA...

CITY           SKY/WX    TMP DP  RH WIND       PRES   REMARKS
N CHARLESTON   MOSUNNY   92  65  40 VRB3      30.10F HX  94
WATERFRONT PRK   N/A     83  76  79 SE12      30.11F HX  91
MOUNT PLEASANT FAIR      86  73  66 E5        30.12F HX  93
JOHNS ISLAND   FAIR      88  72  58 E10       30.12F HX  94
PINOPOLIS        N/A     84  68  58 CALM      30.05F
MONCKS CORNER  FAIR      88  63  42 CALM      30.11F
SUMMERVILLE    FAIR      90  64  43 N6        30.12F HX  91
BEAUFORT MCAS  MOSUNNY   91  65  41 VRB5      30.11F HX  93
BEAUFORT ARPT  FAIR      90  64  43 N7        30.11F HX  91
HILTON HEAD IS MOSUNNY   93  70  46 E6G13     30.12F HX  99
WALTERBORO     CLEAR     91  57  31 CALM      30.12F HX  90
ALLENDALE      FAIR      91  63  38 N5G17     30.10F HX  92

...SOUTHERN MIDLANDS AND PEE DEE...

CITY           SKY/WX    TMP DP  RH WIND       PRES   REMARKS
GEORGETOWN     FAIR      86  72  62 E10G16    30.13F HX  92
KINGSTREE      FAIR      91  61  35 E8        30.11F HX  91
ORANGEBURG     SUNNY     92  63  38 N6        30.11F HX  93
BARNWELL       NOT AVBL
AIKEN          MOCLDY    88  66  48 CALM      30.16F HX  90
MANNING        FAIR      88  63  42 N3        30.11F
COLUMBIA       PTSUNNY   91  66  43 E5        30.11F HX  93
SUMTER         MOSUNNY   91  66  44 SE8       30.10F HX  93
FLORENCE       SUNNY     91  63  39 E7        30.12F HX  92
MYRTLE BEACH   MOSUNNY   88  66  48 SE12      30.13F HX  90
N MYRTLE BEACH SUNNY     86  72  62 SE12      30.11F HX  92

$$

GAZ063-065-086>088-099>101-113>116-118-119-134>141-150-252000-
...SOUTHEAST GEORGIA...

CITY           SKY/WX    TMP DP  RH WIND       PRES   REMARKS
SAVANNAH ARPT  PTSUNNY   91  64  40 NE8       30.10F HX  92
HUNTER AAF     MOSUNNY   90  74  59 E8        30.08F HX  99
FORT STEWART   MOSUNNY   90  67  47 N5        30.08F HX  93
STATESBORO     SUNNY     92  65  40 E6        30.12F HX  94
SYLVANIA       NOT AVBL
CLAXTON        FAIR      92  66  42 E7        30.11F HX  94

...CSRA...CENTRAL AND FAR SOUTHEAST GEORGIA...

CITY           SKY/WX    TMP DP  RH WIND       PRES   REMARKS
THOMSON        SUNNY     92  72  51 MISG      30.17F HX  99
AUGUSTA-BUSH   MOSUNNY   92  68  45 VRB3      30.11F HX  96
AUGUSTA-DANIEL MOSUNNY   93  68  43 CALM      30.13F HX  97
SWAINSBORO     FAIR      91  59  33 CALM      30.12F HX  90
VIDALIA        MOSUNNY   91  70  49 E6G17     30.12F HX  97
EASTMAN        MOCLDY    92  50  23 N8        30.14F
HAZLEHURST     FAIR      92  63  37 E10G16    30.10F HX  93
ALMA           SUNNY     90  64  42 VRB6      30.11F HX  91
WAYCROSS         N/A     92  69  46 SE6       30.09F HX  97
JESUP          FAIR      91  73  55 E7        30.10F HX 100
BAXLEY         FAIR      91  70  49 SE7       30.10F HX  97
BRUNSWICK      PTSUNNY   90  75  62 E16G22    30.10F HX 100
SAINT SIMONS   PTSUNNY   85  75  72 NE9       30.09F HX  93

$$

SCZ027-028-034-036>038-045-046-048>050-GAZ119-141-252000-
...LAKE AND SUPPLEMENTAL COASTAL OBSERVATIONS...

STATION/POSITION TIME  TEMP    WIND        PRES    WAVE   SWELL
                       AIR SEA DIR/SP/G            HT/PER HT/PER/DIR
                 (UTC) (F)     (DEG/KT/KT) (MB)    (FT/S) (FT/S/D)
WINYAH BAY       NOT AVBL
LAKE MURRAY      1800   87     210/  5/  6 1020.0F
ACE BASIN NERRS  NOT AVBL
FORT PULASKI     1800   84 85   70/ 11/ 13 1020.8F
SAPELO ISLAND    1800   87      20/ 12     1020.0F

$$

ANZ835-935-AMZ111-154-330-350-352-354-370-450-454-472-252000-
...C-MAN AND BUOY OBSERVATIONS...

STATION/POSITION TIME  TEMP    WIND        PRES    WAVE   SWELL
                       AIR SEA DIR/SP/G            HT/PER HT/PER/DIR
                 (UTC) (F)     (DEG/KT/KT) (MB)    (FT/S) (FT/S/D)
BUOY 41004       1850   83 84   40/ 10/ 12 1019.2F   3/10   3/ 70/10
BUOY 41008       1850   82 85   40/ 17/ 21 1018.7F   4/ 5   2/ 90/11
FOLLY BEACH CMAN 1900   82     100/ 11/ 13 1020.2F
CAPERS NEARSHORE 1808   81 84  100/ 10/ 14 1020.2F
FRIPP NEARSHORE  1808   83 86   70/ 10/ 14 1019.6F


STATION/POSITION TIME  TEMP    WIND        PRES    WAVE   SWELL
                       AIR SEA DIR/SP/G            HT/PER HT/PER/DIR
                 (UTC) (F)     (DEG/KT/KT) (MB)    (FT/S) (FT/S/D)
5E ST. MARYS GA  1801      84                N/A     4/11   2/ 90/11
FRYING PAN BUOY  1800   82 85   50/ 10/ 14 1020.0F
BUOY 41025       1850   81 85   60/  6/  8 1020.3F   3/ 9   3/110/ 9
CAPE LOOKOUT NC  1900   82      80/  8/  9 1019.6F
BUOY 41002       1850   82 84   50/ 14/ 17 1018.1F   4/ 8   3/110/ 8
BUOY 41010       NOT AVBL
ST AUGUSTINE FL  1900   82 84   10/ 14/ 15 1019.1F


$$



USA.gov is the U.S. government's official web portal to all federal, state and local government web resources and services.